Location: Unnamed
(47.6264°N, 122.3366°W)
Time: 13:24:52
(UTC-07:00)

UPPER FREE FLYER - Pass Details

Date: 06 August 2020
Orbit: 571 x 589 km, 97.7° (Epoch: 01 October)

Event Time Altitude Azimuth Distance (km) Brightness Sun altitude
Exits shadow 23:36:34 29° 237° (WSW) 1,070 ? -22.4°
Maximum altitude 23:37:30 32° 264° (W) 993 ? -22.5°
Drops below altitude 10° 23:41:12 10° 328° (NNW) 1,893 ? -22.7°
Sets 23:43:33 0° 339° (NNW) 2,799 ? -22.9°
